FIE513 LOWW-UDYZ

Flight info

Callsign FIE513
Flight time N/A
Altitude 35000
Route ADAMA DCT VEDER DCT ALAMU DCT EPARI DCT BUDOP DCT UDROS UM859 BAMUP/N0457F370 UM859 KARDE UL851 TBN UP146 YAVUZ UN161 INDUR
Aircraft A320/M-SDE3FGHIRWY/LB1

Departure

Time 2026-05-01 14:48
Airport Vienna International Airport (LOWW)

Arrival

Time N/A
Airport Zvartnots International Airport (UDYZ)
Time Latitude Longitude Altitude Speed Heading
2026-05-01 14:12 48.12094 16.55160 620 ft 0 kts 296°
2026-05-01 14:35 48.12085 16.55186 622 ft 4 kts 293°
2026-05-01 14:35 48.12078 16.55221 610 ft 4 kts 257°
2026-05-01 14:35 48.12083 16.55237 618 ft 0 kts 206°
2026-05-01 14:38 48.12082 16.55236 619 ft 1 kts 206°
2026-05-01 14:38 48.12046 16.55209 620 ft 8 kts 206°
2026-05-01 14:38 48.12001 16.55178 613 ft 6 kts 199°
2026-05-01 14:38 48.11943 16.55197 614 ft 14 kts 179°
2026-05-01 14:39 48.11869 16.55244 620 ft 12 kts 118°
2026-05-01 14:39 48.11834 16.55355 619 ft 15 kts 116°
2026-05-01 14:39 48.11781 16.55515 615 ft 17 kts 116°
2026-05-01 14:39 48.11733 16.55662 618 ft 15 kts 116°
2026-05-01 14:40 48.11692 16.55789 614 ft 13 kts 116°
2026-05-01 14:40 48.11654 16.55907 620 ft 13 kts 116°
2026-05-01 14:40 48.11607 16.56052 621 ft 16 kts 115°
2026-05-01 14:40 48.11561 16.56193 615 ft 14 kts 116°
2026-05-01 14:41 48.11511 16.56344 614 ft 20 kts 116°
2026-05-01 14:41 48.11454 16.56522 616 ft 18 kts 116°
2026-05-01 14:41 48.11404 16.56679 616 ft 16 kts 115°
2026-05-01 14:41 48.11355 16.56826 624 ft 18 kts 117°
2026-05-01 14:42 48.11289 16.57017 616 ft 23 kts 117°
2026-05-01 14:42 48.11215 16.57254 613 ft 26 kts 115°
2026-05-01 14:42 48.11138 16.57493 617 ft 26 kts 116°
2026-05-01 14:42 48.11065 16.57717 621 ft 22 kts 116°
2026-05-01 14:43 48.10955 16.57832 618 ft 19 kts 165°
2026-05-01 14:43 48.10837 16.57881 617 ft 17 kts 164°
2026-05-01 14:43 48.10731 16.57927 618 ft 15 kts 163°
2026-05-01 14:43 48.10637 16.57968 618 ft 15 kts 164°
2026-05-01 14:44 48.10518 16.58020 619 ft 18 kts 163°
2026-05-01 14:44 48.10337 16.58098 615 ft 15 kts 163°
2026-05-01 14:44 48.10236 16.58139 619 ft 19 kts 165°
2026-05-01 14:45 48.10107 16.58193 615 ft 18 kts 164°
2026-05-01 14:45 48.09857 16.58294 609 ft 25 kts 166°
2026-05-01 14:45 48.09681 16.58369 618 ft 26 kts 163°
2026-05-01 14:46 48.09505 16.58444 623 ft 26 kts 164°
2026-05-01 14:46 48.09176 16.58583 618 ft 22 kts 164°
2026-05-01 14:46 48.09031 16.58645 621 ft 21 kts 164°
2026-05-01 14:47 48.08898 16.58701 615 ft 19 kts 164°
2026-05-01 14:47 48.08801 16.58817 624 ft 18 kts 116°
2026-05-01 14:47 48.08810 16.58999 616 ft 18 kts 63°
2026-05-01 14:48 48.09157 16.59010 621 ft 64 kts 344°
2026-05-01 14:48 48.09789 16.58742 618 ft 122 kts 344°
2026-05-01 14:48 48.11822 16.57889 1409 ft 158 kts 345°
2026-05-01 14:49 48.13922 16.58497 2389 ft 190 kts 54°
2026-05-01 14:49 48.14940 16.62680 2980 ft 240 kts 72°
2026-05-01 14:50 48.15526 16.66079 3783 ft 259 kts 73°
2026-05-01 14:50 48.16281 16.73223 6080 ft 274 kts 102°
2026-05-01 14:51 48.15603 16.75917 6947 ft 278 kts 111°
2026-05-01 14:51 48.13922 16.81157 8670 ft 279 kts 110°
2026-05-01 14:52 48.12331 16.86462 10321 ft 283 kts 108°
2026-05-01 14:52 48.11536 16.89289 10530 ft 306 kts 107°
2026-05-01 14:52 48.09787 16.95616 10885 ft 349 kts 108°
2026-05-01 14:53 48.08833 16.99010 11426 ft 357 kts 108°
2026-05-01 14:53 48.07857 17.02442 12080 ft 360 kts 108°
2026-05-01 14:53 48.06871 17.05901 12741 ft 364 kts 108°
2026-05-01 14:53 48.05876 17.09394 13391 ft 367 kts 108°
2026-05-01 14:54 48.04870 17.12918 14032 ft 370 kts 108°
2026-05-01 14:54 48.03853 17.16474 14596 ft 374 kts 108°
2026-05-01 14:54 48.02828 17.20057 15147 ft 377 kts 108°
2026-05-01 14:54 48.01792 17.23665 15725 ft 379 kts 108°
2026-05-01 14:55 48.00746 17.27295 16273 ft 382 kts 108°
2026-05-01 14:55 47.99692 17.30953 16799 ft 385 kts 108°
2026-05-01 14:55 47.98666 17.34647 17311 ft 385 kts 104°
2026-05-01 14:55 47.97830 17.38452 17822 ft 387 kts 103°
2026-05-01 14:56 47.96996 17.42285 18327 ft 390 kts 103°
2026-05-01 14:56 47.96154 17.46151 18792 ft 393 kts 103°
2026-05-01 14:56 47.95305 17.50038 19227 ft 396 kts 103°
2026-05-01 14:56 47.94447 17.53946 19666 ft 398 kts 103°
2026-05-01 14:57 47.93578 17.57877 20112 ft 400 kts 103°
2026-05-01 14:57 47.91838 17.65731 21039 ft 403 kts 103°
2026-05-01 14:57 47.90962 17.69705 21481 ft 404 kts 103°
2026-05-01 14:58 47.90081 17.73697 21915 ft 406 kts 103°
2026-05-01 14:58 47.89195 17.77705 22335 ft 409 kts 103°
2026-05-01 14:58 47.88301 17.81737 22730 ft 411 kts 103°
2026-05-01 14:58 47.87402 17.85777 23125 ft 412 kts 103°
2026-05-01 14:59 47.86494 17.89841 23511 ft 414 kts 103°
2026-05-01 14:59 47.85577 17.93919 23891 ft 416 kts 103°
2026-05-01 14:59 47.84630 17.98004 24205 ft 420 kts 106°
2026-05-01 14:59 47.83422 18.02003 24532 ft 425 kts 108°
2026-05-01 15:00 47.80927 18.09999 25205 ft 427 kts 108°
2026-05-01 15:00 47.79669 18.14013 25490 ft 429 kts 108°
2026-05-01 15:00 47.78404 18.18042 25771 ft 431 kts 108°
2026-05-01 15:01 47.77133 18.22086 26038 ft 433 kts 108°
2026-05-01 15:01 47.75855 18.26149 26313 ft 435 kts 108°
2026-05-01 15:01 47.74609 18.30237 26577 ft 433 kts 105°
2026-05-01 15:01 47.73715 18.34482 26822 ft 428 kts 97°
2026-05-01 15:02 47.73255 18.38821 27122 ft 425 kts 90°
2026-05-01 15:02 47.73148 18.40300 27219 ft 425 kts 90°
2026-05-01 15:02 47.72606 18.47554 27726 ft 426 kts 91°
2026-05-01 15:02 47.72269 18.51919 28114 ft 424 kts 91°
2026-05-01 15:03 47.71931 18.56264 28523 ft 423 kts 90°
2026-05-01 15:03 47.71593 18.60594 28912 ft 422 kts 90°
2026-05-01 15:03 47.71255 18.64915 29284 ft 421 kts 90°
2026-05-01 15:03 47.70914 18.69228 29667 ft 420 kts 90°
2026-05-01 15:04 47.70572 18.73525 30052 ft 419 kts 90°
2026-05-01 15:04 47.70232 18.77812 30430 ft 418 kts 90°
2026-05-01 15:04 47.69895 18.82094 30754 ft 417 kts 90°
2026-05-01 15:04 47.69557 18.86366 31036 ft 416 kts 90°
2026-05-01 15:05 47.69217 18.90630 31334 ft 416 kts 90°
2026-05-01 15:05 47.68804 18.94884 31591 ft 420 kts 95°
2026-05-01 15:05 47.67964 18.99071 31839 ft 428 kts 104°
2026-05-01 15:05 47.66669 19.03030 32106 ft 436 kts 111°
2026-05-01 15:06 47.65173 19.06952 32375 ft 437 kts 111°
2026-05-01 15:06 47.63678 19.10874 32650 ft 437 kts 111°
2026-05-01 15:06 47.62184 19.14796 32925 ft 437 kts 111°
2026-05-01 15:06 47.60691 19.18715 33243 ft 437 kts 111°
2026-05-01 15:07 47.59196 19.22632 33540 ft 436 kts 111°
2026-05-01 15:07 47.57702 19.26539 33823 ft 436 kts 111°
2026-05-01 15:07 47.56207 19.30446 34105 ft 436 kts 111°
2026-05-01 15:07 47.54712 19.34344 34359 ft 436 kts 111°
2026-05-01 15:08 47.53216 19.38245 34587 ft 436 kts 111°
2026-05-01 15:08 47.51717 19.42149 34820 ft 436 kts 111°
2026-05-01 15:08 47.50215 19.46050 35038 ft 437 kts 111°
2026-05-01 15:08 47.48712 19.49955 35235 ft 437 kts 111°
2026-05-01 15:09 47.47205 19.53865 35334 ft 439 kts 111°
2026-05-01 15:09 47.44170 19.61727 35307 ft 441 kts 111°
2026-05-01 15:10 47.41117 19.69583 35310 ft 441 kts 111°
2026-05-01 15:10 47.36527 19.81359 35307 ft 441 kts 111°
2026-05-01 15:11 47.31928 19.93117 35334 ft 441 kts 111°
2026-05-01 15:12 47.28855 20.00937 35323 ft 441 kts 111°
2026-05-01 15:12 47.24760 20.11325 35313 ft 441 kts 111°
2026-05-01 15:14 47.17046 20.30791 35334 ft 440 kts 112°
2026-05-01 15:14 47.12409 20.42425 35317 ft 440 kts 112°
2026-05-01 15:15 47.06222 20.57909 35303 ft 440 kts 112°
2026-05-01 15:16 47.00003 20.73351 35304 ft 440 kts 112°
2026-05-01 15:18 46.92192 20.92617 35330 ft 440 kts 112°
2026-05-01 15:19 46.85947 21.07936 35315 ft 440 kts 112°
2026-05-01 15:19 46.81233 21.19433 35307 ft 440 kts 112°
2026-05-01 15:20 46.76514 21.30884 35308 ft 438 kts 112°
2026-05-01 15:21 46.73372 21.38485 35306 ft 438 kts 112°
2026-05-01 15:21 46.70235 21.46088 35301 ft 438 kts 112°
2026-05-01 15:22 46.65708 21.57588 35329 ft 434 kts 109°
2026-05-01 15:22 46.62916 21.65367 35316 ft 433 kts 109°
2026-05-01 15:23 46.60118 21.73123 35305 ft 433 kts 109°
2026-05-01 15:23 46.57266 21.80840 35298 ft 433 kts 109°
2026-05-01 15:24 46.54393 21.88536 35288 ft 433 kts 109°
2026-05-01 15:24 46.51513 21.96232 35286 ft 434 kts 110°
2026-05-01 15:25 46.48654 22.03886 35284 ft 435 kts 110°
2026-05-01 15:25 46.45765 22.11603 35266 ft 436 kts 110°
2026-05-01 15:26 46.42858 22.19316 35261 ft 436 kts 110°
2026-05-01 15:26 46.39944 22.27030 35271 ft 437 kts 111°
2026-05-01 15:27 46.37020 22.34762 35258 ft 438 kts 111°
2026-05-01 15:28 46.32607 22.46376 35252 ft 439 kts 111°
2026-05-01 15:28 46.29660 22.54124 35247 ft 440 kts 111°
2026-05-01 15:29 46.25235 22.65756 35251 ft 441 kts 112°
2026-05-01 15:30 46.19257 22.81265 35245 ft 442 kts 112°
2026-05-01 15:31 46.10257 23.04539 35241 ft 446 kts 114°